Location: ???
(35.5616°N, 139.7977°E)
Time: 03:45:47
(UTC+00:00)

Cosmos 1943 - Pass Details

Date: 17 November 2025
Orbit: 832 x 847 km, 71.0° (Epoch: 09 December)

Event Time Altitude Azimuth Distance (km) Brightness Sun altitude
Rises 20:04:37 0° 209° (SSW) 3,364 6.2 -15.2°
Reaches altitude 10° 20:07:04 10° 213° (SSW) 2,432 5.4 -14.7°
Maximum altitude 20:12:34 61° 293° (WNW) 939 3.1 -13.6°
Drops below altitude 10° 20:18:07 10° 14° (NNE) 2,445 5.6 -12.5°
Sets 20:20:36 0° 18° (NNE) 3,383 6.4 -12.1°
